| time (UTC) | temp F | wind direction | speed MPH | gust MPH | rain 1hr in | rain 24hr in | rain mn in | humidity % | barometer mb |
| 20260504190504 | 78 | 104 | 5.0 | 8.0 | 0.00 | 0.00 | 0.00 | 35 | 1018.1 |
| 20260504190020 | 78 | 113 | 4.0 | 10.0 | 0.00 | 0.00 | 0.00 | 35 | 1018.1 |
| 20260504185509 | 78 | 134 | 6.0 | 10.0 | 0.00 | 0.00 | 0.00 | 36 | 1018.1 |
| 20260504185007 | 77 | 269 | 3.0 | 16.0 | 0.00 | 0.00 | 0.00 | 36 | 1018.0 |
| 20260504184509 | 77 | 110 | 3.0 | 16.0 | 0.00 | 0.00 | 0.00 | 37 | 1018.1 |
| 20260504184003 | 77 | 165 | 5.0 | 11.0 | 0.00 | 0.00 | 0.00 | 37 | 1018.1 |
| 20260504183504 | 78 | 101 | 5.0 | 11.0 | 0.00 | 0.00 | 0.00 | 38 | 1018.1 |
| 20260504183007 | 77 | 19 | 1.0 | 13.0 | 0.00 | 0.00 | 0.00 | 38 | 1018.3 |
| 20260504182503 | 78 | 119 | 8.0 | 13.0 | 0.00 | 0.00 | 0.00 | 38 | 1018.3 |
| 20260504182004 | 77 | 155 | 4.0 | 12.0 | 0.00 | 0.00 | 0.00 | 38 | 1018.2 |
| 20260504181508 | 78 | 158 | 6.0 | 12.0 | 0.00 | 0.00 | 0.00 | 37 | 1018.2 |
| 20260504181004 | 77 | 174 | 5.0 | 13.0 | 0.00 | 0.00 | 0.00 | 39 | 1018.2 |
| 20260504180506 | 77 | 154 | 6.0 | 13.0 | 0.00 | 0.00 | 0.00 | 39 | 1018.2 |
| 20260504180020 | 77 | 168 | 6.0 | 14.0 | 0.00 | 0.00 | 0.00 | 39 | 1018.3 |
| 20260504175509 | 78 | 126 | 8.0 | 14.0 | 0.00 | 0.00 | 0.00 | 39 | 1018.4 |
| 20260504175010 | 78 | 103 | 5.0 | 13.0 | 0.00 | 0.00 | 0.00 | 39 | 1018.4 |
| 20260504174520 | 78 | 162 | 6.0 | 13.0 | 0.00 | 0.00 | 0.00 | 39 | 1018.5 |
| 20260504174008 | 77 | 117 | 5.0 | 10.0 | 0.00 | 0.00 | 0.00 | 37 | 1018.5 |
| 20260504173503 | 78 | 172 | 3.0 | 10.0 | 0.00 | 0.00 | 0.00 | 37 | 1018.8 |
| 20260504173010 | 78 | 188 | 7.0 | 9.0 | 0.00 | 0.00 | 0.00 | 38 | 1018.8 |
| 20260504172508 | 78 | 212 | 5.0 | 7.0 | 0.00 | 0.00 | 0.00 | 39 | 1018.8 |
| 20260504172003 | 77 | 246 | 3.0 | 8.0 | 0.00 | 0.00 | 0.00 | 36 | 1018.8 |
| 20260504171508 | 77 | 184 | 4.0 | 8.0 | 0.00 | 0.00 | 0.00 | 36 | 1019.0 |
| 20260504171005 | 77 | 197 | 2.0 | 7.0 | 0.00 | 0.00 | 0.00 | 37 | 1018.9 |
| 20260504170506 | 77 | 356 | 1.0 | 10.0 | 0.00 | 0.00 | 0.00 | 35 | 1018.9 |
| 20260504150504 | 73 | 15 | 2.0 | 6.0 | 0.00 | 0.01 | 0.00 | 38 | 1019.6 |
| 20260504141004 | 71 | 140 | 4.0 | 8.0 | 0.00 | 0.01 | 0.00 | 42 | 1019.9 |
| 20260504140501 | 71 | 84 | 2.0 | 5.0 | 0.00 | 0.01 | 0.00 | 46 | 1020.0 |
| 20260504100503 | 48 | 1 | 0.0 | 0.0 | 0.00 | 0.01 | 0.00 | 93 | 1018.8 |
| 20260504081007 | 50 | 1 | 0.0 | 0.0 | 0.00 | 0.01 | 0.00 | 92 | 1018.8 |
| 20260504044504 | 53 | 101 | 0.0 | 2.0 | 0.00 | 0.01 | 0.00 | 90 | 1020.1 |
| 20260504042002 | 54 | 101 | 0.0 | 0.0 | 0.00 | 0.01 | 0.00 | 89 | 1020.0 |
| 20260504041510 | 54 | 101 | 0.0 | 0.0 | 0.00 | 0.01 | 0.00 | 89 | 1020.1 |
| 20260504041004 | 54 | 101 | 0.0 | 0.0 | 0.00 | 0.01 | 0.00 | 88 | 1020.0 |
| 20260504040504 | 54 | 101 | 0.0 | 0.0 | 0.00 | 0.01 | 0.00 | 88 | 1020.0 |
| 20260504040018 | 54 | 101 | 0.0 | 0.0 | 0.00 | 0.01 | 0.00 | 88 | 1020.0 |
| 20260504035506 | 55 | 101 | 0.0 | 0.0 | 0.00 | 0.01 | 0.01 | 88 | 1020.0 |
| 20260504035007 | 55 | 101 | 0.0 | 0.0 | 0.00 | 0.01 | 0.01 | 88 | 1020.0 |
| 20260504034534 | 55 | 101 | 0.0 | 0.0 | 0.00 | 0.01 | 0.01 | 88 | 1020.0 |
| 20260504032004 | 55 | 101 | 0.0 | 0.0 | 0.00 | 0.01 | 0.01 | 86 | 1020.1 |
| 20260504031508 | 56 | 101 | 0.0 | 0.0 | 0.00 | 0.01 | 0.01 | 85 | 1020.1 |
| 20260504031003 | 56 | 101 | 0.0 | 0.0 | 0.00 | 0.01 | 0.01 | 84 | 1020.2 |
| 20260504030503 | 56 | 101 | 0.0 | 0.0 | 0.00 | 0.02 | 0.01 | 85 | 1020.2 |
| 20260504030014 | 56 | 101 | 0.0 | 0.0 | 0.00 | 0.02 | 0.01 | 84 | 1020.1 |
| 20260504025508 | 57 | 101 | 0.0 | 2.0 | 0.00 | 0.02 | 0.01 | 84 | 1020.1 |
| 20260504025008 | 57 | 101 | 0.0 | 2.0 | 0.00 | 0.02 | 0.01 | 84 | 1020.2 |
| 20260504024518 | 57 | 101 | 1.0 | 2.0 | 0.00 | 0.02 | 0.01 | 83 | 1020.2 |
| 20260504024005 | 57 | 101 | 0.0 | 1.0 | 0.00 | 0.02 | 0.01 | 83 | 1020.1 |
| 20260504023507 | 57 | 101 | 0.0 | 0.0 | 0.00 | 0.02 | 0.01 | 83 | 1020.0 |
| 20260504023024 | 57 | 101 | 0.0 | 0.0 | 0.00 | 0.02 | 0.01 | 82 | 1020.0 |
| 20260504022508 | 57 | 101 | 0.0 | 0.0 | 0.00 | 0.02 | 0.01 | 81 | 1019.9 |
| 20260504015504 | 59 | 103 | 0.0 | 0.0 | 0.00 | 0.02 | 0.01 | 80 | 1019.7 |
| 20260504015004 | 59 | 102 | 0.0 | 0.0 | 0.00 | 0.02 | 0.01 | 80 | 1019.6 |
| 20260504014519 | 59 | 102 | 0.0 | 1.0 | 0.00 | 0.02 | 0.01 | 79 | 1019.5 |
| 20260504014009 | 59 | 102 | 0.0 | 2.0 | 0.00 | 0.02 | 0.01 | 78 | 1019.5 |
| 20260504013506 | 59 | 102 | 0.0 | 2.0 | 0.00 | 0.02 | 0.01 | 77 | 1019.4 |
| 20260504013026 | 60 | 108 | 0.0 | 2.0 | 0.00 | 0.02 | 0.01 | 76 | 1019.3 |
| 20260504012507 | 60 | 98 | 0.0 | 2.0 | 0.00 | 0.02 | 0.01 | 77 | 1019.3 |
| 20260504012008 | 60 | 98 | 0.0 | 2.0 | 0.00 | 0.02 | 0.01 | 76 | 1019.3 |
| 20260504011523 | 60 | 103 | 0.0 | 2.0 | 0.00 | 0.02 | 0.01 | 74 | 1019.3 |
| 20260504011007 | 61 | 109 | 0.0 | 2.0 | 0.00 | 0.02 | 0.01 | 73 | 1019.2 |
| 20260504010504 | 61 | 109 | 0.0 | 2.0 | 0.00 | 0.02 | 0.01 | 73 | 1019.1 |
| 20260504010010 | 62 | 109 | 0.0 | 2.0 | 0.00 | 0.02 | 0.01 | 73 | 1018.9 |
| 20260504005504 | 62 | 111 | 0.0 | 2.0 | 0.00 | 0.02 | 0.01 | 71 | 1018.8 |
| 20260504005007 | 63 | 109 | 0.0 | 2.0 | 0.00 | 0.02 | 0.01 | 71 | 1018.8 |
| 20260504004514 | 63 | 109 | 0.0 | 2.0 | 0.00 | 0.02 | 0.01 | 70 | 1018.7 |
| 20260504004004 | 64 | 109 | 0.0 | 2.0 | 0.00 | 0.02 | 0.01 | 70 | 1018.6 |
| 20260504003509 | 64 | 109 | 0.0 | 2.0 | 0.00 | 0.02 | 0.01 | 69 | 1018.7 |
| 20260504003021 | 65 | 109 | 0.0 | 2.0 | 0.00 | 0.02 | 0.01 | 67 | 1018.7 |
| 20260504002508 | 65 | 157 | 0.0 | 2.0 | 0.00 | 0.02 | 0.01 | 67 | 1018.8 |
| 20260504002009 | 65 | 157 | 0.0 | 2.0 | 0.00 | 0.02 | 0.01 | 65 | 1018.8 |
| 20260504001525 | 66 | 167 | 0.0 | 2.0 | 0.00 | 0.02 | 0.01 | 64 | 1018.7 |
| 20260504001010 | 67 | 168 | 0.0 | 2.0 | 0.00 | 0.02 | 0.01 | 61 | 1018.8 |
| 20260504000510 | 67 | 133 | 0.0 | 4.0 | 0.00 | 0.02 | 0.01 | 59 | 1018.8 |
| 20260504000006 | 68 | 186 | 1.0 | 4.0 | 0.00 | 0.02 | 0.01 | 58 | 1018.7 |
| 20260503235506 | 68 | 73 | 2.0 | 4.0 | 0.00 | 0.02 | 0.01 | 57 | 1018.7 |
| 20260503235005 | 69 | 187 | 1.0 | 5.0 | 0.00 | 0.02 | 0.01 | 57 | 1018.7 |
| 20260503234514 | 69 | 123 | 2.0 | 5.0 | 0.00 | 0.02 | 0.01 | 57 | 1018.6 |
| 20260503234006 | 69 | 101 | 2.0 | 9.0 | 0.00 | 0.02 | 0.01 | 56 | 1018.4 |
| 20260503233503 | 69 | 93 | 1.0 | 9.0 | 0.00 | 0.02 | 0.01 | 56 | 1018.5 |
| 20260503233002 | 70 | 131 | 2.0 | 7.0 | 0.00 | 0.02 | 0.01 | 56 | 1018.5 |
| 20260503232502 | 70 | 159 | 1.0 | 6.0 | 0.00 | 0.02 | 0.01 | 57 | 1018.5 |
| 20260503232004 | 70 | 91 | 2.0 | 4.0 | 0.00 | 0.02 | 0.01 | 56 | 1018.4 |
| 20260503231503 | 70 | 124 | 2.0 | 4.0 | 0.00 | 0.02 | 0.01 | 56 | 1018.6 |
| 20260503231004 | 70 | 356 | 1.0 | 6.0 | 0.00 | 0.02 | 0.01 | 58 | 1018.6 |
| 20260503230503 | 70 | 124 | 1.0 | 6.0 | 0.00 | 0.02 | 0.01 | 58 | 1018.4 |
| 20260503230008 | 70 | 112 | 4.0 | 9.0 | 0.00 | 0.02 | 0.01 | 56 | 1018.5 |
| 20260503225506 | 70 | 175 | 1.0 | 9.0 | 0.00 | 0.02 | 0.01 | 56 | 1018.5 |
| 20260503225007 | 71 | 64 | 5.0 | 9.0 | 0.00 | 0.02 | 0.01 | 56 | 1018.5 |
| 20260503224529 | 71 | 83 | 2.0 | 8.0 | 0.00 | 0.02 | 0.01 | 56 | 1018.5 |
| 20260503224004 | 71 | 82 | 4.0 | 7.0 | 0.00 | 0.02 | 0.01 | 56 | 1018.6 |
| 20260503223506 | 70 | 121 | 2.0 | 9.0 | 0.00 | 0.02 | 0.01 | 57 | 1018.6 |
| 20260503223022 | 70 | 94 | 4.0 | 11.0 | 0.00 | 0.02 | 0.01 | 56 | 1018.4 |
| 20260503222503 | 71 | 93 | 5.0 | 11.0 | 0.00 | 0.02 | 0.01 | 57 | 1018.5 |
| 20260503222004 | 71 | 71 | 5.0 | 9.0 | 0.00 | 0.03 | 0.01 | 56 | 1018.5 |
| 20260503221521 | 71 | 115 | 6.0 | 9.0 | 0.00 | 0.03 | 0.01 | 56 | 1018.5 |
| 20260503221003 | 71 | 76 | 6.0 | 10.0 | 0.00 | 0.03 | 0.01 | 56 | 1018.4 |
| 20260503220503 | 71 | 86 | 4.0 | 10.0 | 0.00 | 0.03 | 0.01 | 55 | 1018.4 |
| 20260503220004 | 71 | 79 | 1.0 | 7.0 | 0.00 | 0.03 | 0.01 | 56 | 1018.5 |
| 20260503215504 | 71 | 54 | 3.0 | 7.0 | 0.00 | 0.03 | 0.01 | 56 | 1018.4 |
| 20260503215006 | 71 | 90 | 1.0 | 7.0 | 0.00 | 0.03 | 0.01 | 56 | 1018.5 |
| 20260503214508 | 71 | 115 | 3.0 | 7.0 | 0.00 | 0.03 | 0.01 | 55 | 1018.4 |
| 20260503214010 | 71 | 184 | 3.0 | 6.0 | 0.00 | 0.03 | 0.01 | 56 | 1018.5 |
| 20260503213506 | 71 | 163 | 2.0 | 7.0 | 0.00 | 0.03 | 0.01 | 56 | 1018.5 |
| 20260503213014 | 71 | 142 | 2.0 | 7.0 | 0.00 | 0.03 | 0.01 | 55 | 1018.4 |
| 20260503212506 | 72 | 134 | 4.0 | 8.0 | 0.00 | 0.03 | 0.01 | 54 | 1018.3 |
| 20260503212007 | 72 | 172 | 5.0 | 11.0 | 0.00 | 0.03 | 0.01 | 53 | 1018.3 |
| 20260503211523 | 73 | 132 | 5.0 | 9.0 | 0.00 | 0.03 | 0.01 | 53 | 1018.3 |
| 20260503211004 | 73 | 93 | 3.0 | 8.0 | 0.00 | 0.03 | 0.01 | 54 | 1018.4 |
| 20260503210505 | 73 | 146 | 3.0 | 8.0 | 0.00 | 0.03 | 0.01 | 52 | 1018.4 |
| 20260503210007 | 73 | 98 | 2.0 | 6.0 | 0.00 | 0.03 | 0.01 | 51 | 1018.4 |
| 20260503205504 | 73 | 208 | 2.0 | 6.0 | 0.00 | 0.03 | 0.01 | 50 | 1018.3 |
| 20260503205012 | 73 | 117 | 3.0 | 6.0 | 0.00 | 0.03 | 0.01 | 50 | 1018.4 |
| 20260503204507 | 73 | 113 | 2.0 | 5.0 | 0.00 | 0.03 | 0.01 | 51 | 1018.3 |
| 20260503204011 | 72 | 103 | 1.0 | 4.0 | 0.00 | 0.03 | 0.01 | 52 | 1018.6 |
| 20260503203505 | 72 | 153 | 1.0 | 6.0 | 0.00 | 0.04 | 0.01 | 51 | 1018.5 |
| 20260503203016 | 72 | 50 | 3.0 | 6.0 | 0.00 | 0.04 | 0.01 | 50 | 1018.6 |
| 20260503202509 | 72 | 106 | 3.0 | 8.0 | 0.00 | 0.04 | 0.01 | 50 | 1018.5 |
| 20260503202008 | 73 | 75 | 4.0 | 11.0 | 0.00 | 0.04 | 0.01 | 49 | 1018.6 |
| 20260503201524 | 74 | 176 | 5.0 | 11.0 | 0.00 | 0.04 | 0.01 | 49 | 1018.7 |
| 20260503201007 | 75 | 131 | 4.0 | 10.0 | 0.00 | 0.04 | 0.01 | 47 | 1018.6 |
| 20260503200510 | 74 | 33 | 5.0 | 9.0 | 0.00 | 0.04 | 0.01 | 46 | 1018.5 |
| 20260503200022 | 74 | 70 | 5.0 | 7.0 | 0.00 | 0.04 | 0.01 | 45 | 1018.6 |
| 20260503195504 | 74 | 5 | 3.0 | 8.0 | 0.00 | 0.04 | 0.01 | 48 | 1018.7 |
| 20260503195003 | 73 | 151 | 4.0 | 8.0 | 0.00 | 0.04 | 0.01 | 46 | 1018.7 |
| 20260503194509 | 73 | 200 | 4.0 | 9.0 | 0.00 | 0.04 | 0.01 | 48 | 1018.8 |
| 20260503194004 | 73 | 156 | 6.0 | 9.0 | 0.00 | 0.04 | 0.01 | 46 | 1018.9 |
| 20260503193508 | 72 | 179 | 4.0 | 9.0 | 0.00 | 0.05 | 0.01 | 48 | 1018.9 |
| 20260503193014 | 73 | 176 | 4.0 | 11.0 | 0.00 | 0.05 | 0.01 | 48 | 1019.0 |
| 20260503192512 | 73 | 114 | 7.0 | 12.0 | 0.00 | 0.05 | 0.01 | 46 | 1019.2 |
| 20260503192008 | 73 | 71 | 6.0 | 12.0 | 0.00 | 0.05 | 0.01 | 47 | 1019.2 |
| 20260503191528 | 73 | 261 | 3.0 | 6.0 | 0.00 | 0.05 | 0.01 | 46 | 1019.2 |
| 20260503191011 | 73 | 280 | 1.0 | 5.0 | 0.00 | 0.05 | 0.01 | 46 | 1019.4 |